Regional Weather Roundup
Issued by NWS

Home | Current Version | Previous Version | Text Only | Print | Product List | Glossary On
Versions: 1 2 3 4 5 6 7 8 9 10 11 12 13 14 15 16 17 18 19 20 21 22 23 24 25 26 27
000
ASUS44 KJAN 250210
RWRMS

MISSISSIPPI HOURLY WEATHER ROUNDUP
NATIONAL WEATHER SERVICE JACKSON MS
800 PM CST SAT FEB 24 2018

NOTE: "FAIR: INDICATES FEW OR NO CLOUDS BELOW 12,000 FEET WITH NO
SIGNIFICANT WEATHER AND/OR OBSTRUCTIONS TO VISIBILITY.

MSZ001>002-007>008-010>013-018>021-025>028-034>036-250300-
NORTHWEST MISSISSIPPI

CITY           SKY/WX    TMP DP  RH WIND       PRES   REMARKS
BATESVILLE       N/A    N/A N/A N/A MISG        N/A
CLARKSDALE     CLOUDY    59  59 100 W12G17    29.90R FOG
CLEVELAND      LGT RAIN  70  68  94 SW8       29.87R
GREENWOOD      FAIR      71  66  84 S12       29.87R
GREENVILLE     LGT RAIN  73  62  68 SW16G25   29.86R
OLIVE BRANCH   TSTM      66  66 100 W30G40    29.85R VSB 1
OXFORD         DRIZZLE   70  63  78 S9        29.87R
TUNICA         LGT RAIN  55  52  88 W17G24    29.89R
WINONA         MOCLDY    70  66  89 S10       29.88R
$$

MSZ003>006-009-014>017-022>024-029>033-037>039-250300-
NORTHEAST MISSISSIPPI

CITY           SKY/WX    TMP DP  RH WIND       PRES   REMARKS
ABERDEEN       CLOUDY    73  73 100 S13G18    29.90S
COLUMBUS AFB   FAIR      73  67  79 S14       29.90R
CORINTH        MOCLDY    72  64  78 S12G20    29.84R
GOLDN TRIANGLE FAIR      72  65  78 S13       29.92R
STARKVILLE     MOCLDY    73  63  68 S16G23    29.92R
TUPELO         LGT RAIN  69  65  86 S6        29.87R
$$

MSZ040-058-250300-
CENTRAL MISSISSIPPI

CITY           SKY/WX    TMP DP  RH WIND       PRES   REMARKS
JACKSON INTL   FAIR      74  65  73 S15G22    29.93R
JACKSON HAWKNS CLOUDY    75  65  70 S10       29.93R
MADISON        MOCLDY    73  63  68 S7        29.93R
MERIDIAN KEY   FAIR      74  62  66 S14       29.98R
MERIDIAN NAS   FAIR      74  66  76 S8G17     29.98R
RAYMOND        FAIR      75  63  64 S7        29.92S
VICKSBURG VKS    N/A    N/A N/A N/A MISG        N/A
$$

MSZ059>079-250300-
SOUTH MISSISSIPPI

CITY           SKY/WX    TMP DP  RH WIND       PRES   REMARKS
COLUMBIA       FAIR      73  66  78 S14       30.04R
HATTIESBURG    FAIR      72  69  90 S10       30.02R
LAUREL         FAIR      73  66  79 S13       30.01R
MCCOMB         LGT RAIN  74  62  66 S13       29.99R
NATCHEZ        FAIR      72  67  84 S13       29.95R
PINE BELT      FAIR      71  67  87 S9        30.01S
$$

MSZ080>082-250300-
COASTAL MISSISSIPPI

CITY           SKY/WX    TMP DP  RH WIND       PRES   REMARKS
BAY ST LOUIS   PTCLDY    72  70  94 S9        30.04R
BILOXI         FAIR      73  70  89 S9        30.04R
PASCAGOULA     FAIR      73  68  84 S3        30.06R
GULFPORT       FAIR      74  71  91 S7        30.04R
$$

LAZ007>009-015>016-023>026-250300-
NORTHEAST LOUISIANA

CITY           SKY/WX    TMP DP  RH WIND       PRES   REMARKS
BASTROP        LGT RAIN  72  68  88 S8G17     29.88R
TALLULAH/VBURG FAIR      75  66  73 S12G24    29.91R
VIDALIA        FAIR      72  66  82 S15       29.94R
$$




USA.gov is the U.S. government's official web portal to all federal, state and local government web resources and services.